Year,Month,Day,Hour,Minute,Value (Times are PST for windgust in km/hr)
2015,07,16,00,00,19.30
2015,07,16,00,01,20.90
2015,07,16,00,02,17.70
2015,07,16,00,03,17.70
2015,07,16,00,04,24.20
2015,07,16,00,05,16.10
2015,07,16,00,06,9.60
2015,07,16,00,07,19.30
2015,07,16,00,08,25.70
2015,07,16,00,09,17.70
2015,07,16,00,10,32.20
2015,07,16,00,11,22.50
2015,07,16,00,12,20.90
2015,07,16,00,13,29.00
2015,07,16,00,14,22.50
2015,07,16,00,15,24.20
2015,07,16,00,16,17.70
2015,07,16,00,17,20.90
2015,07,16,00,18,24.20
2015,07,16,00,19,17.70
2015,07,16,00,20,29.00
2015,07,16,00,21,20.90
2015,07,16,00,22,20.90
2015,07,16,00,23,25.70
2015,07,16,00,24,25.70
2015,07,16,00,25,25.70
2015,07,16,00,26,24.20
2015,07,16,00,27,17.70
2015,07,16,00,28,22.50
2015,07,16,00,29,17.70
2015,07,16,00,30,32.20
2015,07,16,00,31,17.70
2015,07,16,00,32,20.90
2015,07,16,00,33,20.90
2015,07,16,00,34,17.70
2015,07,16,00,35,20.90
2015,07,16,00,36,19.30
2015,07,16,00,37,20.90
2015,07,16,00,38,16.10
2015,07,16,00,39,19.30
2015,07,16,00,40,19.30
2015,07,16,00,41,22.50
2015,07,16,00,42,24.20
2015,07,16,00,43,16.10
2015,07,16,00,44,22.50
2015,07,16,00,45,16.10
2015,07,16,00,46,17.70
2015,07,16,00,47,32.20
2015,07,16,00,48,22.50
2015,07,16,00,49,27.40
2015,07,16,00,50,20.90
2015,07,16,00,51,19.30
2015,07,16,00,52,25.70
2015,07,16,00,53,29.00
2015,07,16,00,54,24.20
2015,07,16,00,55,24.20
2015,07,16,00,56,29.00
2015,07,16,00,57,17.70
2015,07,16,00,58,20.90
2015,07,16,00,59,22.50
2015,07,16,01,00,24.20
2015,07,16,01,01,19.30
2015,07,16,01,02,14.50
2015,07,16,01,03,14.50
2015,07,16,01,04,14.50
2015,07,16,01,05,29.00
2015,07,16,01,06,25.70
2015,07,16,01,07,24.20
2015,07,16,01,08,20.90
2015,07,16,01,09,25.70
2015,07,16,01,10,22.50
2015,07,16,01,11,27.40
2015,07,16,01,12,20.90
2015,07,16,01,13,16.10
2015,07,16,01,14,24.20
2015,07,16,01,15,17.70
2015,07,16,01,16,25.70
2015,07,16,01,17,25.70
2015,07,16,01,18,20.90
2015,07,16,01,19,19.30
2015,07,16,01,20,25.70
2015,07,16,01,21,25.70
2015,07,16,01,22,24.20
2015,07,16,01,23,16.10
2015,07,16,01,24,19.30
2015,07,16,01,25,25.70
2015,07,16,01,26,19.30
2015,07,16,01,27,20.90
2015,07,16,01,28,22.50
2015,07,16,01,29,20.90
2015,07,16,01,30,20.90
2015,07,16,01,31,20.90
2015,07,16,01,32,19.30
2015,07,16,01,33,19.30
2015,07,16,01,34,17.70
2015,07,16,01,35,16.10
2015,07,16,01,36,16.10
2015,07,16,01,37,14.50
2015,07,16,01,38,11.30
2015,07,16,01,39,12.90
2015,07,16,01,40,20.90
2015,07,16,01,41,20.90
2015,07,16,01,42,25.70
2015,07,16,01,43,20.90
2015,07,16,01,44,20.90
2015,07,16,01,45,22.50
2015,07,16,01,46,16.10
2015,07,16,01,47,20.90
2015,07,16,01,48,20.90
2015,07,16,01,49,22.50
2015,07,16,01,50,17.70
2015,07,16,01,51,20.90
2015,07,16,01,52,22.50
2015,07,16,01,53,19.30
2015,07,16,01,54,17.70
2015,07,16,01,55,16.10
2015,07,16,01,56,19.30
2015,07,16,01,57,17.70
2015,07,16,01,58,14.50
2015,07,16,01,59,24.20
2015,07,16,02,00,16.10
2015,07,16,02,01,17.70
2015,07,16,02,02,25.70
2015,07,16,02,03,14.50
2015,07,16,02,04,19.30
2015,07,16,02,05,17.70
2015,07,16,02,06,17.70
2015,07,16,02,07,29.00
2015,07,16,02,08,11.30
2015,07,16,02,09,16.10
2015,07,16,02,10,16.10
2015,07,16,02,11,20.90
2015,07,16,02,12,16.10
2015,07,16,02,13,14.50
2015,07,16,02,14,17.70
2015,07,16,02,15,17.70
2015,07,16,02,16,14.50
2015,07,16,02,17,16.10
2015,07,16,02,18,17.70
2015,07,16,02,19,20.90
2015,07,16,02,20,17.70
2015,07,16,02,21,14.50
2015,07,16,02,22,16.10
2015,07,16,02,23,22.50
2015,07,16,02,24,20.90
2015,07,16,02,25,22.50
2015,07,16,02,26,24.20
2015,07,16,02,27,12.90
2015,07,16,02,28,17.70
2015,07,16,02,29,17.70
2015,07,16,02,30,14.50
2015,07,16,02,31,14.50
2015,07,16,02,32,20.90
2015,07,16,02,33,14.50
2015,07,16,02,34,17.70
2015,07,16,02,35,14.50
2015,07,16,02,36,22.50
2015,07,16,02,37,19.30
2015,07,16,02,38,17.70
2015,07,16,02,39,22.50
2015,07,16,02,40,17.70
2015,07,16,02,41,16.10
2015,07,16,02,42,19.30
2015,07,16,02,43,14.50
2015,07,16,02,44,22.50
2015,07,16,02,45,17.70
2015,07,16,02,46,20.90
2015,07,16,02,47,14.50
2015,07,16,02,48,14.50
2015,07,16,02,49,16.10
2015,07,16,02,50,14.50
2015,07,16,02,51,12.90
2015,07,16,02,52,17.70
2015,07,16,02,53,17.70
2015,07,16,02,54,17.70
2015,07,16,02,55,19.30
2015,07,16,02,56,14.50
2015,07,16,02,57,19.30
2015,07,16,02,58,14.50
2015,07,16,02,59,12.90
2015,07,16,03,00,17.70
2015,07,16,03,01,12.90
2015,07,16,03,02,11.30
2015,07,16,03,03,11.30
2015,07,16,03,04,12.90
2015,07,16,03,05,14.50
2015,07,16,03,06,12.90
2015,07,16,03,07,12.90
2015,07,16,03,08,16.10
2015,07,16,03,09,11.30
2015,07,16,03,10,14.50
2015,07,16,03,11,14.50
2015,07,16,03,12,16.10
2015,07,16,03,13,17.70
2015,07,16,03,14,17.70
2015,07,16,03,15,16.10
2015,07,16,03,16,17.70
2015,07,16,03,17,17.70
2015,07,16,03,18,19.30
2015,07,16,03,19,12.90
2015,07,16,03,20,16.10
2015,07,16,03,21,19.30
2015,07,16,03,22,20.90
2015,07,16,03,23,11.30
2015,07,16,03,24,14.50
2015,07,16,03,25,14.50
2015,07,16,03,26,17.70
2015,07,16,03,27,16.10
2015,07,16,03,28,19.30
2015,07,16,03,29,20.90
2015,07,16,03,30,20.90
2015,07,16,03,31,14.50
2015,07,16,03,32,17.70
2015,07,16,03,33,22.50
2015,07,16,03,34,19.30
2015,07,16,03,35,16.10
2015,07,16,03,36,12.90
2015,07,16,03,37,17.70
2015,07,16,03,38,14.50
2015,07,16,03,39,16.10
2015,07,16,03,40,20.90
2015,07,16,03,41,24.20
2015,07,16,03,42,12.90
2015,07,16,03,43,20.90
2015,07,16,03,44,20.90
2015,07,16,03,45,16.10
2015,07,16,03,46,16.10
2015,07,16,03,47,17.70
2015,07,16,03,48,20.90
2015,07,16,03,49,19.30
2015,07,16,03,50,22.50
2015,07,16,03,51,14.50
2015,07,16,03,52,12.90
2015,07,16,03,53,22.50
2015,07,16,03,54,16.10
2015,07,16,03,55,16.10
2015,07,16,03,56,14.50
2015,07,16,03,57,14.50
2015,07,16,03,58,14.50
2015,07,16,03,59,12.90
2015,07,16,04,00,9.60
2015,07,16,04,01,9.60
2015,07,16,04,02,16.10
2015,07,16,04,03,12.90
2015,07,16,04,04,19.30
2015,07,16,04,05,17.70
2015,07,16,04,06,16.10
2015,07,16,04,07,11.30
2015,07,16,04,08,17.70
2015,07,16,04,09,17.70
2015,07,16,04,10,24.20
2015,07,16,04,11,29.00
2015,07,16,04,12,22.50
2015,07,16,04,13,14.50
2015,07,16,04,14,11.30
2015,07,16,04,15,11.30
2015,07,16,04,16,11.30
2015,07,16,04,17,12.90
2015,07,16,04,18,17.70
2015,07,16,04,19,16.10
2015,07,16,04,20,14.50
2015,07,16,04,21,16.10
2015,07,16,04,22,20.90
2015,07,16,04,23,19.30
2015,07,16,04,24,12.90
2015,07,16,04,25,16.10
2015,07,16,04,26,14.50
2015,07,16,04,27,19.30
2015,07,16,04,28,19.30
2015,07,16,04,29,19.30
2015,07,16,04,30,19.30
2015,07,16,04,31,16.10
2015,07,16,04,32,16.10
2015,07,16,04,33,9.60
2015,07,16,04,34,12.90
2015,07,16,04,35,20.90
2015,07,16,04,36,16.10
2015,07,16,04,37,17.70
2015,07,16,04,38,17.70
2015,07,16,04,39,17.70
2015,07,16,04,40,14.50
2015,07,16,04,41,12.90
2015,07,16,04,42,12.90
2015,07,16,04,43,14.50
2015,07,16,04,44,12.90
2015,07,16,04,45,9.60
2015,07,16,04,46,16.10
2015,07,16,04,47,16.10
2015,07,16,04,48,11.30
2015,07,16,04,49,12.90
2015,07,16,04,50,16.10
2015,07,16,04,51,17.70
2015,07,16,04,52,16.10
2015,07,16,04,53,19.30
2015,07,16,04,54,17.70
2015,07,16,04,55,17.70
2015,07,16,04,56,11.30
2015,07,16,04,57,12.90
2015,07,16,04,58,14.50
2015,07,16,04,59,11.30
2015,07,16,05,00,14.50
2015,07,16,05,01,9.60
2015,07,16,05,02,14.50
2015,07,16,05,03,12.90
2015,07,16,05,04,17.70
2015,07,16,05,05,16.10
2015,07,16,05,06,14.50
2015,07,16,05,07,14.50
2015,07,16,05,08,14.50
2015,07,16,05,09,12.90
2015,07,16,05,10,11.30
2015,07,16,05,11,11.30
2015,07,16,05,12,14.50
2015,07,16,05,13,14.50
2015,07,16,05,14,12.90
2015,07,16,05,15,16.10
2015,07,16,05,16,16.10
2015,07,16,05,17,12.90
2015,07,16,05,18,14.50
2015,07,16,05,19,14.50
2015,07,16,05,20,16.10
2015,07,16,05,21,12.90
2015,07,16,05,22,11.30
2015,07,16,05,23,12.90
2015,07,16,05,24,16.10
2015,07,16,05,25,14.50
2015,07,16,05,26,11.30
2015,07,16,05,27,12.90
2015,07,16,05,28,11.30
2015,07,16,05,29,17.70
2015,07,16,05,30,11.30
2015,07,16,05,31,16.10
2015,07,16,05,32,16.10
2015,07,16,05,33,11.30
2015,07,16,05,34,16.10
2015,07,16,05,35,14.50
2015,07,16,05,36,12.90
2015,07,16,05,37,11.30
2015,07,16,05,38,11.30
2015,07,16,05,39,12.90
2015,07,16,05,40,11.30
2015,07,16,05,41,9.60
2015,07,16,05,42,14.50
2015,07,16,05,43,12.90
2015,07,16,05,44,11.30
2015,07,16,05,45,12.90
2015,07,16,05,46,12.90
2015,07,16,05,47,11.30
2015,07,16,05,48,9.60
2015,07,16,05,49,12.90
2015,07,16,05,50,11.30
2015,07,16,05,51,11.30
2015,07,16,05,52,14.50
2015,07,16,05,53,9.60
2015,07,16,05,54,12.90
2015,07,16,05,55,16.10
2015,07,16,05,56,17.70
2015,07,16,05,57,16.10
2015,07,16,05,58,11.30
2015,07,16,05,59,11.30
2015,07,16,06,00,12.90
2015,07,16,06,01,12.90
2015,07,16,06,02,14.50
2015,07,16,06,03,16.10
2015,07,16,06,04,12.90
2015,07,16,06,05,11.30
2015,07,16,06,06,14.50
2015,07,16,06,07,14.50
2015,07,16,06,08,12.90
2015,07,16,06,09,12.90
2015,07,16,06,10,11.30
2015,07,16,06,11,12.90
2015,07,16,06,12,12.90
2015,07,16,06,13,14.50
2015,07,16,06,14,9.60
2015,07,16,06,15,8.10
2015,07,16,06,16,11.30
2015,07,16,06,17,9.60
2015,07,16,06,18,9.60
2015,07,16,06,19,6.40
2015,07,16,06,20,8.10
2015,07,16,06,21,11.30
2015,07,16,06,22,9.60
2015,07,16,06,23,12.90
2015,07,16,06,24,8.10
2015,07,16,06,25,8.10
2015,07,16,06,26,12.90
2015,07,16,06,27,14.50
2015,07,16,06,28,11.30
2015,07,16,06,29,11.30
2015,07,16,06,30,9.60
2015,07,16,06,31,8.10
2015,07,16,06,32,8.10
2015,07,16,06,33,11.30
2015,07,16,06,34,9.60
2015,07,16,06,35,12.90
2015,07,16,06,36,12.90
2015,07,16,06,37,12.90
2015,07,16,06,38,11.30
2015,07,16,06,39,11.30
2015,07,16,06,40,11.30
2015,07,16,06,41,8.10
2015,07,16,06,42,11.30
2015,07,16,06,43,11.30
2015,07,16,06,44,12.90
2015,07,16,06,45,11.30
2015,07,16,06,46,9.60
2015,07,16,06,47,8.10
2015,07,16,06,48,9.60
2015,07,16,06,49,9.60
2015,07,16,06,50,9.60
2015,07,16,06,51,8.10
2015,07,16,06,52,12.90
2015,07,16,06,53,11.30
2015,07,16,06,54,14.50
2015,07,16,06,55,12.90
2015,07,16,06,56,8.10
2015,07,16,06,57,9.60
2015,07,16,06,58,9.60
2015,07,16,06,59,12.90
2015,07,16,07,00,6.40
2015,07,16,07,01,6.40
2015,07,16,07,02,8.10
2015,07,16,07,03,16.10
2015,07,16,07,04,14.50
2015,07,16,07,05,9.60
2015,07,16,07,06,8.10
2015,07,16,07,07,8.10
2015,07,16,07,08,9.60
2015,07,16,07,09,12.90
2015,07,16,07,10,8.10
2015,07,16,07,11,9.60
2015,07,16,07,12,11.30
2015,07,16,07,13,12.90
2015,07,16,07,14,9.60
2015,07,16,07,15,11.30
2015,07,16,07,16,12.90
2015,07,16,07,17,9.60
2015,07,16,07,18,8.10
2015,07,16,07,19,8.10
2015,07,16,07,20,8.10
2015,07,16,07,21,9.60
2015,07,16,07,22,9.60
2015,07,16,07,23,11.30
2015,07,16,07,24,11.30
2015,07,16,07,25,9.60
2015,07,16,07,26,9.60
2015,07,16,07,27,12.90
2015,07,16,07,28,12.90
2015,07,16,07,29,12.90
2015,07,16,07,30,9.60
2015,07,16,07,31,12.90
2015,07,16,07,32,12.90
2015,07,16,07,33,14.50
2015,07,16,07,34,11.30
2015,07,16,07,35,9.60
2015,07,16,07,36,6.40
2015,07,16,07,37,8.10
2015,07,16,07,38,8.10
2015,07,16,07,39,14.50
2015,07,16,07,40,11.30
2015,07,16,07,41,14.50
2015,07,16,07,42,11.30
2015,07,16,07,43,11.30
2015,07,16,07,44,11.30
2015,07,16,07,45,11.30
2015,07,16,07,46,9.60
2015,07,16,07,47,6.40
2015,07,16,07,48,8.10
2015,07,16,07,49,11.30
2015,07,16,07,50,8.10
2015,07,16,07,51,12.90
2015,07,16,07,52,8.10
2015,07,16,07,53,9.60
2015,07,16,07,54,9.60
2015,07,16,07,55,8.10
2015,07,16,07,56,4.80
2015,07,16,07,57,9.60
2015,07,16,07,58,4.80
2015,07,16,07,59,8.10
2015,07,16,08,00,9.60
2015,07,16,08,01,8.10
2015,07,16,08,02,12.90
2015,07,16,08,03,8.10
2015,07,16,08,04,9.60
2015,07,16,08,05,9.60
2015,07,16,08,06,9.60
2015,07,16,08,07,11.30
2015,07,16,08,08,9.60
2015,07,16,08,09,9.60
2015,07,16,08,10,9.60
2015,07,16,08,11,6.40
2015,07,16,08,12,4.80
2015,07,16,08,13,4.80
2015,07,16,08,14,4.80
2015,07,16,08,15,6.40
2015,07,16,08,16,8.10
2015,07,16,08,17,4.80
2015,07,16,08,18,8.10
2015,07,16,08,19,8.10
2015,07,16,08,20,3.20
2015,07,16,08,21,3.20
2015,07,16,08,22,3.20
2015,07,16,08,23,1.60
2015,07,16,08,25,1.60
2015,07,16,08,26,1.60
2015,07,16,08,27,1.60
2015,07,16,08,28,4.80
2015,07,16,08,31,1.60
2015,07,16,08,32,1.60
2015,07,16,08,33,1.60
2015,07,16,08,34,1.60
2015,07,16,08,37,3.20
2015,07,16,08,38,6.40
2015,07,16,08,39,1.60
2015,07,16,08,40,4.80
2015,07,16,08,41,4.80
2015,07,16,08,42,8.10
2015,07,16,08,43,6.40
2015,07,16,08,44,8.10
2015,07,16,08,45,12.90
2015,07,16,08,46,9.60
2015,07,16,08,47,9.60
2015,07,16,08,48,4.80
2015,07,16,08,49,4.80
2015,07,16,08,50,4.80
2015,07,16,08,51,8.10
2015,07,16,08,52,6.40
2015,07,16,08,53,8.10
2015,07,16,08,54,9.60
2015,07,16,08,55,8.10
2015,07,16,08,56,8.10
2015,07,16,08,57,3.20
2015,07,16,08,58,3.20
2015,07,16,08,59,1.60
2015,07,16,09,00,6.40
2015,07,16,09,01,8.10
2015,07,16,09,02,6.40
2015,07,16,09,03,6.40
2015,07,16,09,04,4.80
2015,07,16,09,05,1.60
2015,07,16,09,06,1.60
2015,07,16,09,08,1.60
2015,07,16,09,09,6.40
2015,07,16,09,10,4.80
2015,07,16,09,11,1.60
2015,07,16,09,12,4.80
2015,07,16,09,13,11.30
2015,07,16,09,14,9.60
2015,07,16,09,15,8.10
2015,07,16,09,16,8.10
2015,07,16,09,17,9.60
2015,07,16,09,18,11.30
2015,07,16,09,19,9.60
2015,07,16,09,20,11.30
2015,07,16,09,21,9.60
2015,07,16,09,22,4.80
2015,07,16,09,23,1.60
2015,07,16,09,24,4.80
2015,07,16,09,25,3.20
2015,07,16,09,26,4.80
2015,07,16,09,27,8.10
2015,07,16,09,28,6.40
2015,07,16,09,29,4.80
2015,07,16,09,31,1.60
2015,07,16,09,32,1.60
2015,07,16,09,33,8.10
2015,07,16,09,34,9.60
2015,07,16,09,35,9.60
2015,07,16,09,36,9.60
2015,07,16,09,37,8.10
2015,07,16,09,38,6.40
2015,07,16,09,39,9.60
2015,07,16,09,40,11.30
2015,07,16,09,41,8.10
2015,07,16,09,42,6.40
2015,07,16,09,43,4.80
2015,07,16,09,44,9.60
2015,07,16,09,45,8.10
2015,07,16,09,46,11.30
2015,07,16,09,47,6.40
2015,07,16,09,48,6.40
2015,07,16,09,49,6.40
2015,07,16,09,50,9.60
2015,07,16,09,51,12.90
2015,07,16,09,52,9.60
2015,07,16,09,53,8.10
2015,07,16,09,54,4.80
2015,07,16,09,55,12.90
2015,07,16,09,56,9.60
2015,07,16,09,57,8.10
2015,07,16,09,58,9.60
2015,07,16,09,59,8.10
2015,07,16,10,00,8.10
2015,07,16,10,01,3.20
2015,07,16,10,02,3.20
2015,07,16,10,03,6.40
2015,07,16,10,04,9.60
2015,07,16,10,05,8.10
2015,07,16,10,06,12.90
2015,07,16,10,07,8.10
2015,07,16,10,08,8.10
2015,07,16,10,09,9.60
2015,07,16,10,10,9.60
2015,07,16,10,11,11.30
2015,07,16,10,12,9.60
2015,07,16,10,13,8.10
2015,07,16,10,14,9.60
2015,07,16,10,15,6.40
2015,07,16,10,16,9.60
2015,07,16,10,17,8.10
2015,07,16,10,18,6.40
2015,07,16,10,19,9.60
2015,07,16,10,20,9.60
2015,07,16,10,21,3.20
2015,07,16,10,22,3.20
2015,07,16,10,23,9.60
2015,07,16,10,24,8.10
2015,07,16,10,25,4.80
2015,07,16,10,26,4.80
2015,07,16,10,27,8.10
2015,07,16,10,28,4.80
2015,07,16,10,29,9.60
2015,07,16,10,30,9.60
2015,07,16,10,31,12.90
2015,07,16,10,32,11.30
2015,07,16,10,33,9.60
2015,07,16,10,34,11.30
2015,07,16,10,35,8.10
2015,07,16,10,36,9.60
2015,07,16,10,37,8.10
2015,07,16,10,38,6.40
2015,07,16,10,39,8.10
2015,07,16,10,40,11.30
2015,07,16,10,41,9.60
2015,07,16,10,42,8.10
2015,07,16,10,43,11.30
2015,07,16,10,44,9.60
2015,07,16,10,45,9.60
2015,07,16,10,46,14.50
2015,07,16,10,47,11.30
2015,07,16,10,48,11.30
2015,07,16,10,49,9.60
2015,07,16,10,50,16.10
2015,07,16,10,51,17.70
2015,07,16,10,52,16.10
2015,07,16,10,53,11.30
2015,07,16,10,54,16.10
2015,07,16,10,55,16.10
2015,07,16,10,56,11.30
2015,07,16,10,57,16.10
2015,07,16,10,58,14.50
2015,07,16,10,59,20.90
2015,07,16,11,00,20.90
2015,07,16,11,01,19.30
2015,07,16,11,02,9.60
2015,07,16,11,03,16.10
2015,07,16,11,04,16.10
2015,07,16,11,05,9.60
2015,07,16,11,06,11.30
2015,07,16,11,07,11.30
2015,07,16,11,08,8.10
2015,07,16,11,09,11.30
2015,07,16,11,10,12.90
2015,07,16,11,11,12.90
2015,07,16,11,12,8.10
2015,07,16,11,13,8.10
2015,07,16,11,14,9.60
2015,07,16,11,15,6.40
2015,07,16,11,16,4.80
2015,07,16,11,17,6.40
2015,07,16,11,18,6.40
2015,07,16,11,19,6.40
2015,07,16,11,20,9.60
2015,07,16,11,21,8.10
2015,07,16,11,22,12.90
2015,07,16,11,23,12.90
2015,07,16,11,24,11.30
2015,07,16,11,25,8.10
2015,07,16,11,26,8.10
2015,07,16,11,27,16.10
2015,07,16,11,28,11.30
2015,07,16,11,29,11.30
2015,07,16,11,30,9.60
2015,07,16,11,31,8.10
2015,07,16,11,32,12.90
2015,07,16,11,33,12.90
2015,07,16,11,34,17.70
2015,07,16,11,35,11.30
2015,07,16,11,36,12.90
2015,07,16,11,37,12.90
2015,07,16,11,38,12.90
2015,07,16,11,39,8.10
2015,07,16,11,40,12.90
2015,07,16,11,41,11.30
2015,07,16,11,42,19.30
2015,07,16,11,43,14.50
2015,07,16,11,44,16.10
2015,07,16,11,45,9.60
2015,07,16,11,46,11.30
2015,07,16,11,47,16.10
2015,07,16,11,48,11.30
2015,07,16,11,49,8.10
2015,07,16,11,50,11.30
2015,07,16,11,51,12.90
2015,07,16,11,52,8.10
2015,07,16,11,53,6.40
2015,07,16,11,54,9.60
2015,07,16,11,55,4.80
2015,07,16,11,56,8.10
2015,07,16,11,57,9.60
2015,07,16,11,58,11.30
2015,07,16,11,59,9.60
2015,07,16,12,00,11.30
2015,07,16,12,01,11.30
2015,07,16,12,02,8.10
2015,07,16,12,03,12.90
2015,07,16,12,04,12.90
2015,07,16,12,05,9.60
2015,07,16,12,06,11.30
2015,07,16,12,07,11.30
2015,07,16,12,08,12.90
2015,07,16,12,09,9.60
2015,07,16,12,10,4.80
2015,07,16,12,11,8.10
2015,07,16,12,12,6.40
2015,07,16,12,13,4.80
2015,07,16,12,14,8.10
2015,07,16,12,15,8.10
2015,07,16,12,16,9.60
2015,07,16,12,17,9.60
2015,07,16,12,18,12.90
2015,07,16,12,19,12.90
2015,07,16,12,20,11.30
2015,07,16,12,21,12.90
2015,07,16,12,22,9.60
2015,07,16,12,23,11.30
2015,07,16,12,24,8.10
2015,07,16,12,25,9.60
2015,07,16,12,26,6.40
2015,07,16,12,27,11.30
2015,07,16,12,28,8.10
2015,07,16,12,29,8.10
2015,07,16,12,30,6.40
2015,07,16,12,31,9.60
2015,07,16,12,32,11.30
2015,07,16,12,33,8.10
2015,07,16,12,34,6.40
2015,07,16,12,35,4.80
2015,07,16,12,36,9.60
2015,07,16,12,37,8.10
2015,07,16,12,38,8.10
2015,07,16,12,39,4.80
2015,07,16,12,40,11.30
2015,07,16,12,41,11.30
2015,07,16,12,42,8.10
2015,07,16,12,43,12.90
2015,07,16,12,44,8.10
2015,07,16,12,45,8.10
2015,07,16,12,46,11.30
2015,07,16,12,47,11.30
2015,07,16,12,48,8.10
2015,07,16,12,49,8.10
2015,07,16,12,50,6.40
2015,07,16,12,51,6.40
2015,07,16,12,52,11.30
2015,07,16,12,53,6.40
2015,07,16,12,54,11.30
2015,07,16,12,55,9.60
2015,07,16,12,56,6.40
2015,07,16,12,57,9.60
2015,07,16,12,58,11.30
2015,07,16,12,59,8.10
2015,07,16,13,00,9.60
2015,07,16,13,01,12.90
2015,07,16,13,02,11.30
2015,07,16,13,03,17.70
2015,07,16,13,04,19.30
2015,07,16,13,05,11.30
2015,07,16,13,06,11.30
2015,07,16,13,07,14.50
2015,07,16,13,08,11.30
2015,07,16,13,09,8.10
2015,07,16,13,10,4.80
2015,07,16,13,11,11.30
2015,07,16,13,12,11.30
2015,07,16,13,13,11.30
2015,07,16,13,14,8.10
2015,07,16,13,15,6.40
2015,07,16,13,16,1.60
2015,07,16,13,17,6.40
2015,07,16,13,18,11.30
2015,07,16,13,19,16.10
2015,07,16,13,20,16.10
2015,07,16,13,21,11.30
2015,07,16,13,22,14.50
2015,07,16,13,23,11.30
2015,07,16,13,24,11.30
2015,07,16,13,25,8.10
2015,07,16,13,26,11.30
2015,07,16,13,27,17.70
2015,07,16,13,28,11.30
2015,07,16,13,29,11.30
2015,07,16,13,30,9.60
2015,07,16,13,31,16.10
2015,07,16,13,32,12.90
2015,07,16,13,33,14.50
2015,07,16,13,34,9.60
2015,07,16,13,35,8.10
2015,07,16,13,36,4.80
2015,07,16,13,37,12.90
2015,07,16,13,38,11.30
2015,07,16,13,39,14.50
2015,07,16,13,40,14.50
2015,07,16,13,41,14.50
2015,07,16,13,42,19.30
2015,07,16,13,43,14.50
2015,07,16,13,44,19.30
2015,07,16,13,45,14.50
2015,07,16,13,46,16.10
2015,07,16,13,47,12.90
2015,07,16,13,48,16.10
2015,07,16,13,49,14.50
2015,07,16,13,50,9.60
2015,07,16,13,51,12.90
2015,07,16,13,52,11.30
2015,07,16,13,53,9.60
2015,07,16,13,54,11.30
2015,07,16,13,55,11.30
2015,07,16,13,56,12.90
2015,07,16,13,57,12.90
2015,07,16,13,58,14.50
2015,07,16,13,59,11.30
2015,07,16,14,00,11.30
2015,07,16,14,01,9.60
2015,07,16,14,02,16.10
2015,07,16,14,03,12.90
2015,07,16,14,04,8.10
2015,07,16,14,05,8.10
2015,07,16,14,06,11.30
2015,07,16,14,07,12.90
2015,07,16,14,08,11.30
2015,07,16,14,09,11.30
2015,07,16,14,10,11.30
2015,07,16,14,11,9.60
2015,07,16,14,12,11.30
2015,07,16,14,13,9.60
2015,07,16,14,14,11.30
2015,07,16,14,15,9.60
2015,07,16,14,16,8.10
2015,07,16,14,17,9.60
2015,07,16,14,18,8.10
2015,07,16,14,19,11.30
2015,07,16,14,20,9.60
2015,07,16,14,21,8.10
2015,07,16,14,22,11.30
2015,07,16,14,23,11.30
2015,07,16,14,24,8.10
2015,07,16,14,25,3.20
2015,07,16,14,26,11.30
2015,07,16,14,27,8.10
2015,07,16,14,28,9.60
2015,07,16,14,29,9.60
2015,07,16,14,30,8.10
2015,07,16,14,31,8.10
2015,07,16,14,32,8.10
2015,07,16,14,33,16.10
2015,07,16,14,34,12.90
2015,07,16,14,35,11.30
2015,07,16,14,36,9.60
2015,07,16,14,37,14.50
2015,07,16,14,38,11.30
2015,07,16,14,39,14.50
2015,07,16,14,40,12.90
2015,07,16,14,41,14.50
2015,07,16,14,42,14.50
2015,07,16,14,43,14.50
2015,07,16,14,44,11.30
2015,07,16,14,45,9.60
2015,07,16,14,46,9.60
2015,07,16,14,47,11.30
2015,07,16,14,48,9.60
2015,07,16,14,49,9.60
2015,07,16,14,50,11.30
2015,07,16,14,51,8.10
2015,07,16,14,52,14.50
2015,07,16,14,53,12.90
2015,07,16,14,54,11.30
2015,07,16,14,55,16.10
2015,07,16,14,56,14.50
2015,07,16,14,57,14.50
2015,07,16,14,58,14.50
2015,07,16,14,59,9.60
2015,07,16,15,00,11.30
2015,07,16,15,01,12.90
2015,07,16,15,02,8.10
2015,07,16,15,03,12.90
2015,07,16,15,04,14.50
2015,07,16,15,05,14.50
2015,07,16,15,06,9.60
2015,07,16,15,07,11.30
2015,07,16,15,08,12.90
2015,07,16,15,09,9.60
2015,07,16,15,10,9.60
2015,07,16,15,11,14.50
2015,07,16,15,12,12.90
2015,07,16,15,13,9.60
2015,07,16,15,14,12.90
2015,07,16,15,15,14.50
2015,07,16,15,16,12.90
2015,07,16,15,17,8.10
2015,07,16,15,18,12.90
2015,07,16,15,19,11.30
2015,07,16,15,20,6.40
2015,07,16,15,21,14.50
2015,07,16,15,22,9.60
2015,07,16,15,23,9.60
2015,07,16,15,24,12.90
2015,07,16,15,25,12.90
2015,07,16,15,26,11.30
2015,07,16,15,27,12.90
2015,07,16,15,28,12.90
2015,07,16,15,29,12.90
2015,07,16,15,30,11.30
2015,07,16,15,31,11.30
2015,07,16,15,32,12.90
2015,07,16,15,33,16.10
2015,07,16,15,34,14.50
2015,07,16,15,35,14.50
2015,07,16,15,36,14.50
2015,07,16,15,37,12.90
2015,07,16,15,38,14.50
2015,07,16,15,39,12.90
2015,07,16,15,40,11.30
2015,07,16,15,41,11.30
2015,07,16,15,42,8.10
2015,07,16,15,43,8.10
2015,07,16,15,44,11.30
2015,07,16,15,45,16.10
2015,07,16,15,46,16.10
2015,07,16,15,47,9.60
2015,07,16,15,48,9.60
2015,07,16,15,49,11.30
2015,07,16,15,50,11.30
2015,07,16,15,51,11.30
2015,07,16,15,52,11.30
2015,07,16,15,53,11.30
2015,07,16,15,54,16.10
2015,07,16,15,55,12.90
2015,07,16,15,56,12.90
2015,07,16,15,57,12.90
2015,07,16,15,58,9.60
2015,07,16,15,59,12.90
2015,07,16,16,00,9.60
2015,07,16,16,01,12.90
2015,07,16,16,02,12.90
2015,07,16,16,03,11.30
2015,07,16,16,04,14.50
2015,07,16,16,05,14.50
2015,07,16,16,06,11.30
2015,07,16,16,07,11.30
2015,07,16,16,08,14.50
2015,07,16,16,09,11.30
2015,07,16,16,10,12.90
2015,07,16,16,11,9.60
2015,07,16,16,12,14.50
2015,07,16,16,13,9.60
2015,07,16,16,14,11.30
2015,07,16,16,15,11.30
2015,07,16,16,16,14.50
2015,07,16,16,17,12.90
2015,07,16,16,18,11.30
2015,07,16,16,19,12.90
2015,07,16,16,20,14.50
2015,07,16,16,21,11.30
2015,07,16,16,22,11.30
2015,07,16,16,23,12.90
2015,07,16,16,24,9.60
2015,07,16,16,25,9.60
2015,07,16,16,26,8.10
2015,07,16,16,27,9.60
2015,07,16,16,28,6.40
2015,07,16,16,29,9.60
2015,07,16,16,30,8.10
2015,07,16,16,31,9.60
2015,07,16,16,32,9.60
2015,07,16,16,33,9.60
2015,07,16,16,34,8.10
2015,07,16,16,35,12.90
2015,07,16,16,36,12.90
2015,07,16,16,37,9.60
2015,07,16,16,38,11.30
2015,07,16,16,39,12.90
2015,07,16,16,40,11.30
2015,07,16,16,41,9.60
2015,07,16,16,42,12.90
2015,07,16,16,43,6.40
2015,07,16,16,44,9.60
2015,07,16,16,45,12.90
2015,07,16,16,46,8.10
2015,07,16,16,47,9.60
2015,07,16,16,48,9.60
2015,07,16,16,49,14.50
2015,07,16,16,50,11.30
2015,07,16,16,51,17.70
2015,07,16,16,52,16.10
2015,07,16,16,53,14.50
2015,07,16,16,54,11.30
2015,07,16,16,55,14.50
2015,07,16,16,56,12.90
2015,07,16,16,57,12.90
2015,07,16,16,58,16.10
2015,07,16,16,59,16.10
2015,07,16,17,00,11.30
2015,07,16,17,01,16.10
2015,07,16,17,02,14.50
2015,07,16,17,03,12.90
2015,07,16,17,04,12.90
2015,07,16,17,05,19.30
2015,07,16,17,06,17.70
2015,07,16,17,07,16.10
2015,07,16,17,08,16.10
2015,07,16,17,09,14.50
2015,07,16,17,10,16.10
2015,07,16,17,11,14.50
2015,07,16,17,12,14.50
2015,07,16,17,13,12.90
2015,07,16,17,14,17.70
2015,07,16,17,15,12.90
2015,07,16,17,16,14.50
2015,07,16,17,17,14.50
2015,07,16,17,18,14.50
2015,07,16,17,19,16.10
2015,07,16,17,20,11.30
2015,07,16,17,21,12.90
2015,07,16,17,22,9.60
2015,07,16,17,23,12.90
2015,07,16,17,24,14.50
2015,07,16,17,25,16.10
2015,07,16,17,26,12.90
2015,07,16,17,27,12.90
2015,07,16,17,28,9.60
2015,07,16,17,29,12.90
2015,07,16,17,30,16.10
2015,07,16,17,31,14.50
2015,07,16,17,32,12.90
2015,07,16,17,33,9.60
2015,07,16,17,34,12.90
2015,07,16,17,35,14.50
2015,07,16,17,36,11.30
2015,07,16,17,37,14.50
2015,07,16,17,38,12.90
2015,07,16,17,39,9.60
2015,07,16,17,40,14.50
2015,07,16,17,41,14.50